BAW18A EGCC-EHAM

Flight info

Callsign BAW18A
Flight time 0h 50m
Altitude 33000
Route SONEX L975 DESIG L603 LAMSO
Aircraft A388/J-SADE2E3FGHIJ3J4J5M1RWXY/LB1D1

Departure

Time 2026-05-07 16:33
Airport Manchester Airport (EGCC)

Arrival

Time 2026-05-07 17:23
Airport Amsterdam Airport Schiphol (EHAM)
Time Latitude Longitude Altitude Speed Heading
2026-05-07 16:05 53.36571 -2.28356 261 ft 0 kts 315°
2026-05-07 16:19 53.36568 -2.28351 260 ft 3 kts 315°
2026-05-07 16:20 53.36555 -2.28328 262 ft 4 kts 315°
2026-05-07 16:20 53.36547 -2.28314 265 ft 0 kts 315°
2026-05-07 16:21 53.36548 -2.28316 265 ft 0 kts 315°
2026-05-07 16:21 53.36538 -2.28298 265 ft 3 kts 307°
2026-05-07 16:21 53.36532 -2.28269 263 ft 3 kts 281°
2026-05-07 16:21 53.36531 -2.28238 263 ft 3 kts 267°
2026-05-07 16:22 53.36538 -2.28210 265 ft 3 kts 236°
2026-05-07 16:22 53.36544 -2.28200 265 ft 0 kts 226°
2026-05-07 16:22 53.36542 -2.28203 265 ft 0 kts 226°
2026-05-07 16:27 53.36524 -2.28233 260 ft 10 kts 223°
2026-05-07 16:27 53.36467 -2.28325 260 ft 13 kts 224°
2026-05-07 16:28 53.36392 -2.28447 260 ft 17 kts 224°
2026-05-07 16:28 53.36322 -2.28440 260 ft 12 kts 137°
2026-05-07 16:28 53.36235 -2.28287 260 ft 22 kts 134°
2026-05-07 16:28 53.36128 -2.28106 260 ft 22 kts 135°
2026-05-07 16:29 53.36016 -2.27935 260 ft 22 kts 139°
2026-05-07 16:29 53.35887 -2.27840 260 ft 19 kts 157°
2026-05-07 16:29 53.35784 -2.27688 256 ft 20 kts 142°
2026-05-07 16:29 53.35652 -2.27567 251 ft 22 kts 141°
2026-05-07 16:30 53.35590 -2.27481 250 ft 1 kts 140°
2026-05-07 16:30 53.35584 -2.27473 250 ft 0 kts 141°
2026-05-07 16:30 53.35540 -2.27414 252 ft 16 kts 142°
2026-05-07 16:31 53.35416 -2.27246 251 ft 30 kts 142°
2026-05-07 16:31 53.35235 -2.27223 241 ft 22 kts 190°
2026-05-07 16:31 53.35162 -2.27246 241 ft 8 kts 191°
2026-05-07 16:31 53.35027 -2.27308 231 ft 23 kts 224°
2026-05-07 16:32 53.34924 -2.27499 231 ft 23 kts 231°
2026-05-07 16:32 53.34650 -2.28059 236 ft 102 kts 231°
2026-05-07 16:32 53.34072 -2.29261 236 ft 157 kts 231°
2026-05-07 16:32 53.33357 -2.30740 506 ft 171 kts 230°
2026-05-07 16:33 53.32639 -2.32254 1253 ft 159 kts 227°
2026-05-07 16:33 53.31969 -2.33655 1971 ft 157 kts 231°
2026-05-07 16:33 53.31637 -2.35550 2287 ft 188 kts 269°
2026-05-07 16:33 53.32077 -2.37732 2713 ft 214 kts 301°
2026-05-07 16:34 53.33191 -2.39596 3234 ft 242 kts 323°
2026-05-07 16:34 53.34747 -2.40966 3849 ft 264 kts 336°
2026-05-07 16:34 53.36518 -2.42026 4652 ft 274 kts 341°
2026-05-07 16:34 53.38351 -2.42971 5583 ft 279 kts 341°
2026-05-07 16:35 53.40214 -2.43918 6575 ft 282 kts 341°
2026-05-07 16:35 53.42099 -2.44900 7485 ft 286 kts 340°
2026-05-07 16:35 53.44027 -2.45822 8351 ft 292 kts 349°
2026-05-07 16:35 53.46064 -2.45630 9267 ft 299 kts 15°
2026-05-07 16:36 53.47915 -2.44013 10133 ft 304 kts 41°
2026-05-07 16:36 53.49287 -2.41234 10602 ft 320 kts 64°
2026-05-07 16:36 53.49962 -2.37585 10848 ft 337 kts 87°
2026-05-07 16:36 53.49782 -2.33644 11374 ft 341 kts 104°
2026-05-07 16:37 53.49380 -2.29699 12121 ft 346 kts 99°
2026-05-07 16:37 53.49261 -2.25690 12904 ft 352 kts 92°
2026-05-07 16:37 53.49443 -2.21508 13682 ft 357 kts 86°
2026-05-07 16:37 53.49784 -2.17403 14385 ft 361 kts 84°
2026-05-07 16:38 53.50202 -2.13215 15034 ft 366 kts 82°
2026-05-07 16:38 53.50652 -2.08976 15705 ft 370 kts 82°
2026-05-07 16:38 53.51109 -2.04704 16339 ft 374 kts 82°
2026-05-07 16:38 53.51566 -2.00394 16986 ft 378 kts 82°
2026-05-07 16:39 53.52027 -1.96018 17639 ft 382 kts 82°
2026-05-07 16:39 53.52367 -1.91586 18239 ft 384 kts 90°
2026-05-07 16:39 53.52222 -1.87092 18803 ft 385 kts 101°
2026-05-07 16:39 53.51598 -1.82728 19383 ft 385 kts 109°
2026-05-07 16:40 53.50813 -1.78400 19917 ft 388 kts 109°
2026-05-07 16:40 53.50042 -1.74047 20468 ft 391 kts 109°
2026-05-07 16:40 53.49270 -1.69655 20998 ft 394 kts 109°
2026-05-07 16:40 53.48499 -1.65280 21538 ft 396 kts 109°
2026-05-07 16:41 53.47702 -1.60777 22079 ft 399 kts 108°
2026-05-07 16:41 53.46904 -1.56289 22588 ft 402 kts 109°
2026-05-07 16:41 53.46109 -1.51839 23096 ft 405 kts 109°
2026-05-07 16:41 53.45294 -1.47303 23616 ft 408 kts 109°
2026-05-07 16:42 53.44472 -1.42733 24093 ft 410 kts 109°
2026-05-07 16:42 53.43648 -1.38164 24601 ft 410 kts 109°
2026-05-07 16:42 53.42818 -1.33570 25109 ft 412 kts 109°
2026-05-07 16:42 53.41984 -1.28970 25581 ft 413 kts 109°
2026-05-07 16:43 53.41146 -1.24348 26127 ft 415 kts 109°
2026-05-07 16:43 53.40307 -1.19725 26672 ft 416 kts 109°
2026-05-07 16:43 53.39460 -1.15072 27242 ft 418 kts 109°
2026-05-07 16:43 53.38606 -1.10403 27808 ft 420 kts 109°
2026-05-07 16:44 53.38026 -1.07234 28189 ft 421 kts 109°
2026-05-07 16:44 53.37164 -1.02538 28763 ft 424 kts 109°
2026-05-07 16:44 53.36292 -0.97807 29298 ft 426 kts 108°
2026-05-07 16:44 53.35415 -0.93053 29901 ft 429 kts 108°
2026-05-07 16:45 53.34543 -0.88339 30413 ft 431 kts 108°
2026-05-07 16:45 53.33652 -0.83532 30887 ft 434 kts 108°
2026-05-07 16:45 53.32753 -0.78692 31380 ft 437 kts 109°
2026-05-07 16:45 53.31847 -0.73832 31853 ft 439 kts 109°
2026-05-07 16:46 53.30932 -0.68938 32321 ft 442 kts 109°
2026-05-07 16:46 53.30010 -0.64017 32796 ft 445 kts 109°
2026-05-07 16:46 53.29081 -0.59071 33061 ft 452 kts 109°
2026-05-07 16:46 53.28122 -0.53982 33049 ft 465 kts 109°
2026-05-07 16:47 53.27134 -0.48757 33049 ft 478 kts 109°
2026-05-07 16:47 53.25093 -0.37989 33053 ft 489 kts 109°
2026-05-07 16:48 53.23034 -0.27186 33045 ft 490 kts 109°
2026-05-07 16:48 53.20958 -0.16366 33048 ft 490 kts 109°
2026-05-07 16:49 53.18876 -0.05572 33048 ft 490 kts 109°
2026-05-07 16:49 53.16777 0.05234 33059 ft 489 kts 109°
2026-05-07 16:50 53.14674 0.16020 33057 ft 490 kts 109°
2026-05-07 16:50 53.12558 0.26802 33073 ft 490 kts 109°
2026-05-07 16:51 53.10434 0.37568 33074 ft 490 kts 109°
2026-05-07 16:51 53.08315 0.48246 33075 ft 490 kts 109°
2026-05-07 16:52 53.06167 0.59007 33076 ft 490 kts 109°
2026-05-07 16:52 53.04012 0.69750 33075 ft 490 kts 109°
2026-05-07 16:53 53.01851 0.80463 33077 ft 490 kts 109°
2026-05-07 16:53 52.99674 0.91201 33077 ft 492 kts 109°
2026-05-07 16:54 52.97628 1.02047 33075 ft 494 kts 103°
2026-05-07 16:54 52.96341 1.13245 33081 ft 494 kts 101°
2026-05-07 16:55 52.95053 1.24453 33081 ft 494 kts 102°
2026-05-07 16:55 52.93746 1.35638 33081 ft 494 kts 102°
2026-05-07 16:56 52.92428 1.46815 33086 ft 494 kts 102°
2026-05-07 16:56 52.90439 1.63491 33090 ft 495 kts 102°
2026-05-07 16:57 52.89093 1.74673 33089 ft 495 kts 102°
2026-05-07 16:57 52.87754 1.85703 33090 ft 476 kts 102°
2026-05-07 16:58 52.86450 1.96350 33095 ft 471 kts 102°
2026-05-07 16:58 52.85156 2.06830 32779 ft 454 kts 102°
2026-05-07 16:59 52.84528 2.11892 32493 ft 445 kts 102°
2026-05-07 16:59 52.83907 2.16880 31928 ft 442 kts 102°
2026-05-07 16:59 52.83287 2.21835 31368 ft 437 kts 102°
2026-05-07 16:59 52.82673 2.26725 30805 ft 433 kts 102°
2026-05-07 17:00 52.82063 2.31572 30249 ft 428 kts 102°
2026-05-07 17:00 52.81457 2.36368 29640 ft 424 kts 102°
2026-05-07 17:00 52.80857 2.41103 29109 ft 418 kts 102°
2026-05-07 17:00 52.80264 2.45770 28555 ft 413 kts 102°
2026-05-07 17:01 52.79675 2.50392 28010 ft 408 kts 102°
2026-05-07 17:01 52.79088 2.54971 27468 ft 404 kts 102°
2026-05-07 17:01 52.78509 2.59479 26934 ft 400 kts 102°
2026-05-07 17:01 52.77931 2.63953 26400 ft 397 kts 102°
2026-05-07 17:02 52.77356 2.68398 25865 ft 394 kts 102°
2026-05-07 17:02 52.76784 2.72808 25341 ft 391 kts 102°
2026-05-07 17:02 52.76215 2.77184 24813 ft 389 kts 103°
2026-05-07 17:02 52.75653 2.81486 24298 ft 388 kts 103°
2026-05-07 17:03 52.75084 2.85832 23766 ft 387 kts 103°
2026-05-07 17:03 52.74515 2.90163 23182 ft 385 kts 103°
2026-05-07 17:03 52.73947 2.94461 22658 ft 382 kts 103°
2026-05-07 17:03 52.73215 2.98659 22131 ft 378 kts 111°
2026-05-07 17:04 52.72174 3.02614 21601 ft 375 kts 118°
2026-05-07 17:04 52.70893 3.06315 21090 ft 372 kts 122°
2026-05-07 17:04 52.69592 3.09978 20557 ft 370 kts 121°
2026-05-07 17:04 52.68307 3.13638 20043 ft 368 kts 121°
2026-05-07 17:05 52.67027 3.17290 19520 ft 367 kts 121°
2026-05-07 17:05 52.65754 3.20919 19004 ft 365 kts 121°
2026-05-07 17:05 52.64483 3.24532 18482 ft 364 kts 121°
2026-05-07 17:05 52.63214 3.28131 17934 ft 362 kts 121°
2026-05-07 17:06 52.61951 3.31705 17392 ft 359 kts 121°
2026-05-07 17:06 52.60701 3.35238 16893 ft 356 kts 121°
2026-05-07 17:06 52.59491 3.38764 16381 ft 353 kts 118°
2026-05-07 17:06 52.58556 3.42485 15865 ft 351 kts 109°
2026-05-07 17:07 52.57958 3.46363 15364 ft 350 kts 101°
2026-05-07 17:07 52.57574 3.50228 14864 ft 347 kts 100°
2026-05-07 17:07 52.57163 3.54195 14364 ft 345 kts 101°
2026-05-07 17:07 52.56756 3.58031 13859 ft 343 kts 101°
2026-05-07 17:08 52.56339 3.61922 13349 ft 340 kts 101°
2026-05-07 17:08 52.55928 3.65730 12858 ft 336 kts 101°
2026-05-07 17:08 52.55528 3.69448 12385 ft 333 kts 101°
2026-05-07 17:08 52.55120 3.73224 11905 ft 330 kts 101°
2026-05-07 17:09 52.54726 3.76859 11441 ft 327 kts 101°
2026-05-07 17:09 52.54328 3.80523 10958 ft 324 kts 101°
2026-05-07 17:09 52.53933 3.84146 10505 ft 321 kts 101°
2026-05-07 17:09 52.53546 3.87695 10352 ft 309 kts 101°
2026-05-07 17:10 52.53174 3.91093 10115 ft 295 kts 101°
2026-05-07 17:10 52.52812 3.94382 9986 ft 292 kts 101°
2026-05-07 17:10 52.52346 3.97629 9861 ft 291 kts 110°
2026-05-07 17:10 52.51595 4.00693 9789 ft 290 kts 113°
2026-05-07 17:11 52.50834 4.03756 9725 ft 289 kts 112°
2026-05-07 17:11 52.50088 4.06815 9640 ft 289 kts 112°
2026-05-07 17:11 52.49348 4.09864 9527 ft 288 kts 112°
2026-05-07 17:11 52.48607 4.12912 9419 ft 288 kts 113°
2026-05-07 17:12 52.47867 4.15954 9300 ft 287 kts 113°
2026-05-07 17:12 52.47127 4.18988 9140 ft 286 kts 113°
2026-05-07 17:12 52.46387 4.22014 9022 ft 285 kts 112°
2026-05-07 17:12 52.45652 4.25017 8883 ft 284 kts 113°
2026-05-07 17:13 52.44919 4.28005 8748 ft 283 kts 113°
2026-05-07 17:13 52.44186 4.30996 8615 ft 282 kts 113°
2026-05-07 17:13 52.43457 4.33964 8486 ft 281 kts 114°
2026-05-07 17:13 52.42725 4.36936 8350 ft 279 kts 113°
2026-05-07 17:14 52.41999 4.39876 8179 ft 275 kts 115°
2026-05-07 17:14 52.41029 4.42502 7748 ft 273 kts 135°
2026-05-07 17:14 52.39505 4.44263 7375 ft 268 kts 160°
2026-05-07 17:14 52.37656 4.44731 6699 ft 269 kts 187°
2026-05-07 17:15 52.35910 4.43891 6117 ft 267 kts 200°
2026-05-07 17:15 52.34181 4.42786 5520 ft 266 kts 201°
2026-05-07 17:15 52.32438 4.41689 4839 ft 270 kts 200°
2026-05-07 17:15 52.30675 4.40603 4262 ft 268 kts 200°
2026-05-07 17:16 52.28988 4.39581 4095 ft 248 kts 199°
2026-05-07 17:16 52.27420 4.38639 4068 ft 236 kts 199°
2026-05-07 17:16 52.25887 4.37723 4072 ft 234 kts 198°
2026-05-07 17:16 52.24300 4.37334 4082 ft 232 kts 171°
2026-05-07 17:17 52.22829 4.38310 4068 ft 230 kts 140°
2026-05-07 17:17 52.21896 4.40325 4039 ft 218 kts 112°
2026-05-07 17:17 52.21448 4.42553 3935 ft 195 kts 105°
2026-05-07 17:17 52.21092 4.44630 3273 ft 189 kts 105°
2026-05-07 17:18 52.20813 4.46714 2960 ft 190 kts 94°
2026-05-07 17:18 52.20830 4.48812 2898 ft 180 kts 87°
2026-05-07 17:18 52.20847 4.50828 2894 ft 179 kts 88°
2026-05-07 17:18 52.21066 4.52834 2895 ft 177 kts 71°
2026-05-07 17:19 52.21592 4.54675 2782 ft 180 kts 62°
2026-05-07 17:19 52.22240 4.56431 2518 ft 178 kts 58°
2026-05-07 17:19 52.22894 4.58106 2252 ft 175 kts 59°
2026-05-07 17:19 52.23524 4.59752 2024 ft 167 kts 58°
2026-05-07 17:20 52.24126 4.61304 1786 ft 157 kts 58°
2026-05-07 17:20 52.24699 4.62800 1584 ft 155 kts 57°
2026-05-07 17:20 52.25265 4.64261 1374 ft 148 kts 57°
2026-05-07 17:20 52.25785 4.65615 1166 ft 134 kts 56°
2026-05-07 17:21 52.26280 4.66893 1004 ft 136 kts 56°
2026-05-07 17:21 52.26771 4.68177 815 ft 133 kts 56°
2026-05-07 17:21 52.27255 4.69435 646 ft 131 kts 56°
2026-05-07 17:21 52.27734 4.70677 465 ft 127 kts 56°
2026-05-07 17:22 52.28220 4.71905 305 ft 127 kts 56°
2026-05-07 17:22 52.28686 4.73140 133 ft 129 kts 57°
2026-05-07 17:22 52.29156 4.74361 6 ft 115 kts 58°
2026-05-07 17:22 52.29502 4.75265 3 ft 76 kts 58°
2026-05-07 17:23 52.29731 4.75861 3 ft 51 kts 58°
2026-05-07 17:23 52.29875 4.76235 2 ft 17 kts 57°
2026-05-07 17:23 52.29958 4.76439 2 ft 33 kts 49°
2026-05-07 17:23 52.30131 4.76629 4 ft 28 kts 27°
2026-05-07 17:24 52.30292 4.76783 4 ft 25 kts 46°
2026-05-07 17:24 52.30385 4.77016 4 ft 24 kts 58°
2026-05-07 17:24 52.30471 4.77240 4 ft 23 kts 57°
2026-05-07 17:24 52.30556 4.77457 4 ft 23 kts 57°
2026-05-07 17:25 52.30675 4.77590 4 ft 21 kts
2026-05-07 17:25 52.30818 4.77603 4 ft 21 kts
2026-05-07 17:25 52.30970 4.77618 4 ft 24 kts
2026-05-07 17:25 52.31137 4.77631 4 ft 24 kts
2026-05-07 17:26 52.31303 4.77648 4 ft 23 kts
2026-05-07 17:26 52.31457 4.77627 4 ft 21 kts 324°
2026-05-07 17:26 52.31561 4.77457 4 ft 22 kts 296°
2026-05-07 17:26 52.31554 4.77234 4 ft 18 kts 211°
2026-05-07 17:27 52.31433 4.77197 4 ft 16 kts 182°
2026-05-07 17:27 52.31373 4.77165 4 ft 2 kts 241°
2026-05-07 17:27 52.31371 4.77151 4 ft 2 kts 275°
2026-05-07 17:27 52.31381 4.77105 4 ft 2 kts 305°
2026-05-07 17:28 52.31398 4.77062 4 ft 3 kts 302°